Weather History for KBVN - December, 2012

Change the Weather History Date:

Thursday, December 6, 2012

  Actual Average (KOFK) Record (KOFK)
Temperature  
Mean Temperature 44 °F 26 °F  
Max Temperature 50 °F 36 °F 70 °F (1939)
Min Temperature 37 °F 17 °F -13 °F (1950)
Degree Days  
Heating Degree Days 22 39  
Month to date heating degree days 227  
Since 1 July heating degree days 1672  
Cooling Degree Days 0 0  
Month to date cooling degree days 0  
Year to date cooling degree days 915  
Moisture  
Dew Point 22 °F    
Average Humidity 42    
Maximum Humidity 57    
Minimum Humidity 26    
Precipitation  
Precipitation 0.00 in 0.03 in 1.12 in (1913)
Month to date precipitation 0.18  
Year to date precipitation 26.84  
Snow  
Snow 0.00 in 0.20 in - ()
Month to date snowfall 1.2  
Since 1 July snowfall 6.1  
Snow Depth -    
Sea Level Pressure  
Sea Level Pressure 29.97 in    
Wind  
Wind Speed 12 mph (North)    
Max Wind Speed 20 mph    
Max Gust Speed 28 mph    
Visibility 10 miles    
Events      
T = Trace of Precipitation, MM = Missing Value Source: NWS Daily Summary

Daily Weather History Graph

Daily Weather History Graph

Search for Another Location

Airport or City:

Trip Planner

Search our weather history database for the weather conditions in past years. The results will help you decide how hot, cold, wet, or windy it might be!

Date:

Astronomy

Dec. 06, 2012 Rise Set
Actual Time 7:45 AM CST 5:01 PM CST
Civil Twilight 7:14 AM CST 5:32 PM CST
Nautical Twilight 6:39 AM CST 6:07 PM CST
Astronomical Twilight 6:05 AM CST 6:41 PM CST
Moon No Moon Rise 12:33 PM CST (12/6)
Length of Visible Light 10h 18m
Length of Day
9h 16m
Waning Gibbous, 49% of the Moon is Illuminated
Dec 6
Waning Gibbous
Dec 13
New
Dec 19
First Quarter
Dec 28
Full
Jan 4
Last Quarter

Hourly Weather History & Observations

Time (CST) Temp. Windchill Dew Point Humidity Pressure Visibility Wind Dir Wind Speed Gust Speed Precip Events Conditions
7:35 AM 45.0 °F 38.5 °F 27.1 °F 50% 29.91 in 10.0 mi North 13.8 mph 19.6 mph N/A   Clear
7:55 AM 45.0 °F 38.2 °F 26.6 °F 49% 29.91 in 10.0 mi North 15.0 mph 21.9 mph N/A   Clear
8:15 AM 44.2 °F 38.0 °F 26.2 °F 49% 29.92 in 10.0 mi North 12.7 mph 18.4 mph N/A   Clear
8:35 AM 43.9 °F 38.3 °F 25.9 °F 49% 29.92 in 10.0 mi NNW 10.4 mph 17.3 mph N/A   Clear
8:55 AM 43.9 °F 38.3 °F 26.1 °F 50% 29.93 in 10.0 mi NNW 10.4 mph 17.3 mph N/A   Clear
9:15 AM 44.8 °F 39.0 °F 25.9 °F 48% 29.94 in 10.0 mi North 11.5 mph 17.3 mph N/A   Scattered Clouds
9:35 AM 45.7 °F 38.3 °F 23.9 °F 42% 29.94 in 10.0 mi North 18.4 mph 25.3 mph N/A   Clear
9:55 AM 46.0 °F 39.6 °F 23.4 °F 41% 29.95 in 10.0 mi North 15.0 mph 23.0 mph N/A   Clear
10:15 AM 46.4 °F 39.5 °F 23.9 °F 41% 29.96 in 10.0 mi North 17.3 mph 23.0 mph N/A   Clear
10:35 AM 47.3 °F - 23.5 °F 39% 29.97 in 10.0 mi North 15.0 mph 23.0 mph N/A   Clear
10:55 AM 48.9 °F - 22.3 °F 35% 29.98 in 10.0 mi North 17.3 mph 25.3 mph N/A   Clear
11:15 AM 50.0 °F - 20.7 °F 32% 29.98 in 10.0 mi NNW 16.1 mph 23.0 mph N/A   Scattered Clouds
11:35 AM 49.1 °F - 19.0 °F 30% 29.97 in 10.0 mi North 12.7 mph 21.9 mph N/A   Mostly Cloudy
11:55 AM 50.0 °F - 19.2 °F 30% 29.97 in 10.0 mi North 13.8 mph 23.0 mph N/A   Mostly Cloudy
12:15 PM 50.4 °F - 18.7 °F 29% 29.96 in 10.0 mi North 17.3 mph 23.0 mph N/A   Overcast
12:35 PM 50.2 °F - 19.0 °F 29% 29.96 in 10.0 mi North 17.3 mph 21.9 mph N/A   Overcast
12:55 PM 50.2 °F - 18.3 °F 28% 29.95 in 10.0 mi North 12.7 mph 20.7 mph N/A   Overcast
1:15 PM 49.5 °F - 17.2 °F 28% 29.95 in 10.0 mi North 19.6 mph 26.5 mph N/A   Overcast
1:35 PM 50.0 °F - 16.3 °F 26% 29.95 in 10.0 mi NNW 18.4 mph 25.3 mph N/A   Overcast
1:55 PM 49.8 °F - 16.7 °F 27% 29.95 in 10.0 mi North 17.3 mph 27.6 mph N/A   Overcast
2:15 PM 49.6 °F - 17.1 °F 27% 29.95 in 10.0 mi North 17.3 mph 25.3 mph N/A   Overcast
2:35 PM 48.2 °F - 17.2 °F 29% 29.96 in 10.0 mi NNW 18.4 mph 24.2 mph N/A   Overcast
2:55 PM 47.5 °F - 18.9 °F 32% 29.96 in 10.0 mi NNW 11.5 mph 18.4 mph N/A   Overcast
3:15 PM 47.3 °F - 18.3 °F 32% 29.96 in 10.0 mi NNW 13.8 mph 20.7 mph N/A   Mostly Cloudy
3:35 PM 46.6 °F - 19.4 °F 34% 29.96 in 10.0 mi North 13.8 mph 23.0 mph N/A   Mostly Cloudy
3:55 PM 46.4 °F 40.1 °F 18.7 °F 33% 29.96 in 10.0 mi North 15.0 mph 19.6 mph N/A   Mostly Cloudy
4:15 PM 45.5 °F 39.2 °F 18.9 °F 35% 29.96 in 10.0 mi North 13.8 mph 17.3 mph N/A   Mostly Cloudy
4:35 PM 45.1 °F 38.1 °F 19.2 °F 36% 29.97 in 10.0 mi North 16.1 mph 21.9 mph N/A   Overcast
4:55 PM 44.6 °F 39.2 °F 21.0 °F 39% 29.96 in 10.0 mi North 10.4 mph 17.3 mph N/A   Overcast
5:15 PM 44.1 °F 39.0 °F 21.2 °F 40% 29.97 in 10.0 mi North 9.2 mph - N/A   Overcast
5:35 PM 43.3 °F 39.2 °F 21.4 °F 42% 29.97 in 10.0 mi North 6.9 mph - N/A   Overcast
5:55 PM 43.2 °F 39.0 °F 24.4 °F 48% 29.97 in 10.0 mi North 6.9 mph - N/A   Overcast
6:15 PM 42.4 °F 39.6 °F 24.6 °F 49% 29.96 in 10.0 mi North 4.6 mph - N/A   Overcast
6:35 PM 42.8 °F 41.1 °F 25.2 °F 50% 29.97 in 10.0 mi NNW 3.5 mph - N/A   Overcast
7:15 PM 41.9 °F 35.4 °F 26.8 °F 55% 29.97 in 10.0 mi NNE 11.5 mph - N/A   Overcast
7:35 PM 41.2 °F 36.6 °F 24.8 °F 52% 29.98 in 10.0 mi NNE 6.9 mph - N/A   Overcast
8:35 PM 40.3 °F - 23.9 °F 52% 29.99 in 10.0 mi Calm Calm - N/A   Overcast
8:55 PM 40.3 °F - 23.7 °F 52% 30.00 in 10.0 mi Calm Calm - N/A   Overcast
9:15 PM 39.6 °F - 23.4 °F 52% 30.00 in 10.0 mi Calm Calm - N/A   Overcast
9:35 PM 39.6 °F 37.4 °F 22.8 °F 51% 30.01 in 10.0 mi North 3.5 mph - N/A   Overcast
9:55 PM 39.2 °F - 22.5 °F 51% 30.01 in 10.0 mi Calm Calm - N/A   Overcast
10:15 PM 39.0 °F - 22.6 °F 52% 30.01 in 10.0 mi Calm Calm - N/A   Overcast
10:35 PM 38.5 °F 36.1 °F 22.8 °F 53% 30.01 in 10.0 mi NW 3.5 mph - N/A   Overcast
10:55 PM 38.5 °F 36.1 °F 22.8 °F 53% 30.01 in 10.0 mi NNW 3.5 mph - N/A   Overcast
11:15 PM 37.9 °F - 22.8 °F 55% 30.01 in 10.0 mi Calm Calm - N/A   Overcast
11:35 PM 37.4 °F - 23.0 °F 56% 30.01 in 10.0 mi Calm Calm - N/A   Overcast
11:55 PM 37.0 °F - 23.2 °F 57% 30.01 in 10.0 mi Calm Calm - N/A   Overcast